Tacoma, WA

3:12 AM PST on December 03, 2016 (GMT -0800)
McChord Air Force Base

Weather History for KTCM - October, 2013

Change the Weather History Date:

Monday, October 7, 2013

  Actual Average Record
Temperature  
Mean Temperature 54 °F -  
Max Temperature 59 °F 61 °F 79 °F (1984)
Min Temperature 50 °F 42 °F 31 °F (1990)
Degree Days  
Heating Degree Days 10    
Growing Degree Days 4 (Base 50)    
Moisture  
Dew Point 50 °F    
Average Humidity 91    
Maximum Humidity 100    
Minimum Humidity 63    
Precipitation  
Precipitation 0.15 in - - ()
Sea Level Pressure  
Sea Level Pressure 29.98 in    
Wind  
Wind Speed 11 mph (SSW)    
Max Wind Speed 18 mph    
Max Gust Speed 24 mph    
Visibility 10 miles    
Events Rain    
Averages and records for this station are not official NWS values.
T = Trace of Precipitation, MM = Missing Value Source: NWS Daily Summary

Daily Weather History Graph

Daily Weather History Graph

Search for Another Location

Airport or City:

Trip Planner

Search our weather history database for the weather conditions in past years. The results will help you decide how hot, cold, wet, or windy it might be!

Date:

Astronomy

Oct. 07, 2013 Rise Set
Actual Time 7:17 AM PDT 6:36 PM PDT
Civil Twilight 6:46 AM PDT 7:07 PM PDT
Nautical Twilight 6:11 AM PDT 7:42 PM PDT
Astronomical Twilight 5:35 AM PDT 8:18 PM PDT
Moon 10:26 AM PDT (10/7) 8:12 PM PDT (10/7)
Length of Visible Light 12h 20m
Length of Day
11h 19m
Waxing Crescent, 9% of the Moon is Illuminated
Oct 7
Waxing Crescent
Oct 11
First Quarter
Oct 18
Full
Oct 26
Last Quarter
Nov 3
New

Hourly Weather History & Observations

Time (PDT) Temp. Dew Point Humidity Pressure Visibility Wind Dir Wind Speed Gust Speed Precip Events Conditions
12:58 AM 53.1 °F 52.2 °F 97% 29.95 in 10.0 mi South 10.4 mph - 0.07 in Rain Light Rain
1:03 AM 53.6 °F 51.8 °F 94% 29.94 in 10.0 mi South 10.4 mph - N/A Rain Light Rain
1:10 AM 53.6 °F 51.8 °F 94% 29.94 in 10.0 mi SSW 10.4 mph - N/A   Overcast
1:18 AM 53.6 °F 51.8 °F 94% 29.95 in 8.0 mi WSW 9.2 mph - N/A   Light Drizzle
1:23 AM 53.6 °F 51.8 °F 94% 29.95 in 6.0 mi SW 8.1 mph - N/A   Light Drizzle
1:43 AM 53.6 °F 51.8 °F 94% 29.96 in 10.0 mi SSW 10.4 mph - N/A   Light Drizzle
1:51 AM 53.6 °F 51.8 °F 94% 29.96 in 4.0 mi South 9.2 mph - N/A Rain Rain
1:58 AM 52.9 °F 52.7 °F 99% 29.97 in 4.0 mi South 8.1 mph - 0.04 in Rain Light Rain
1:59 AM 53.6 °F 51.8 °F 94% 29.95 in 4.0 mi South 8.1 mph - N/A   Overcast
2:07 AM 53.6 °F 51.8 °F 94% 29.95 in 7.0 mi South 9.2 mph - N/A Rain Light Rain
2:18 AM 51.8 °F 51.8 °F 100% 29.94 in 10.0 mi South 15.0 mph - N/A   Overcast
2:23 AM 51.8 °F 51.8 °F 100% 29.94 in 10.0 mi South 11.5 mph - N/A   Mostly Cloudy
2:28 AM 51.8 °F 51.8 °F 100% 29.95 in 10.0 mi South 13.8 mph - N/A   Overcast
2:43 AM 51.8 °F 51.8 °F 100% 29.94 in 10.0 mi South 12.7 mph - N/A Rain Light Rain
2:52 AM 51.8 °F 51.8 °F 100% 29.94 in 10.0 mi South 10.4 mph - N/A   Overcast
2:58 AM 52.5 °F 52.3 °F 99% 29.95 in 10.0 mi South 9.2 mph - 0.00 in   Overcast
3:03 AM 51.8 °F 51.8 °F 100% 29.94 in 10.0 mi South 8.1 mph - N/A   Overcast
3:18 AM 51.8 °F 51.8 °F 100% 29.94 in 10.0 mi South 8.1 mph - N/A   Overcast
3:23 AM 51.8 °F 51.8 °F 100% 29.93 in 10.0 mi South 6.9 mph - N/A   Overcast
3:58 AM 52.3 °F 52.2 °F 99% 29.94 in 10.0 mi South 9.2 mph - N/A   Overcast
4:38 AM 51.8 °F 51.8 °F 100% 29.93 in 10.0 mi South 8.1 mph - N/A   Overcast
4:58 AM 52.5 °F 51.6 °F 97% 29.94 in 10.0 mi SSW 8.1 mph - N/A   Overcast
5:18 AM 51.8 °F 51.8 °F 100% 29.94 in 10.0 mi South 6.9 mph - N/A   Overcast
5:58 AM 51.8 °F 51.6 °F 99% 29.94 in 10.0 mi South 8.1 mph - N/A   Mostly Cloudy
6:58 AM 50.7 °F 50.5 °F 99% 29.96 in 10.0 mi South 8.1 mph - N/A   Mostly Cloudy
7:58 AM 51.8 °F 50.9 °F 97% 29.96 in 10.0 mi South 8.1 mph - N/A   Overcast
8:24 AM 51.8 °F 51.8 °F 100% 29.95 in 10.0 mi South 10.4 mph - N/A Rain Light Rain
8:58 AM 52.3 °F 51.3 °F 96% 29.98 in 8.0 mi South 10.4 mph - 0.03 in Rain Light Rain
9:03 AM 51.8 °F 51.8 °F 100% 29.96 in 9.0 mi South 9.2 mph - N/A Rain Light Rain
9:09 AM 51.8 °F 51.8 °F 100% 29.96 in 10.0 mi South 11.5 mph - N/A   Overcast
9:11 AM 51.8 °F 51.8 °F 100% 29.96 in 10.0 mi South 10.4 mph - N/A Rain Light Rain
9:25 AM 51.8 °F 51.8 °F 100% 29.97 in 10.0 mi SSW 12.7 mph - N/A   Overcast
9:58 AM 53.4 °F 52.0 °F 95% 30.00 in 10.0 mi SSW 15.0 mph - 0.00 in   Overcast
10:18 AM 53.6 °F 51.8 °F 94% 29.97 in 10.0 mi South 13.8 mph - N/A Rain Light Rain
10:58 AM 53.1 °F 50.4 °F 91% 30.01 in 10.0 mi SSW 11.5 mph - 0.01 in Rain Light Rain
11:05 AM 53.6 °F 50.0 °F 88% 30.00 in 10.0 mi SSW 11.5 mph - N/A   Mostly Cloudy
11:12 AM 53.6 °F 50.0 °F 88% 30.00 in 10.0 mi SSW 11.5 mph - N/A Rain Light Rain
11:20 AM 53.6 °F 50.0 °F 88% 30.00 in 10.0 mi SSW 12.7 mph - N/A   Scattered Clouds
11:58 AM 56.1 °F 51.6 °F 85% 30.01 in 10.0 mi SSW 12.7 mph - 0.00 in   Scattered Clouds
12:58 PM 56.1 °F 49.6 °F 79% 30.02 in 10.0 mi SSW 11.5 mph - N/A   Mostly Cloudy
1:15 PM 55.4 °F 48.2 °F 77% 30.02 in 10.0 mi SW 10.4 mph - N/A Rain Light Rain
1:35 PM 55.4 °F 48.2 °F 77% 30.01 in 10.0 mi SW 11.5 mph - N/A   Mostly Cloudy
1:58 PM 56.8 °F 48.9 °F 75% 30.02 in 10.0 mi SW 13.8 mph - 0.00 in   Scattered Clouds
2:58 PM 57.7 °F 48.2 °F 70% 30.04 in 10.0 mi SW 15.0 mph 21.9 mph N/A   Partly Cloudy
3:58 PM 59.0 °F 46.2 °F 63% 30.04 in 10.0 mi WSW 18.4 mph 24.2 mph N/A   Scattered Clouds
4:58 PM 56.3 °F 46.2 °F 69% 30.06 in 10.0 mi SSW 13.8 mph - N/A   Mostly Cloudy
5:58 PM 54.7 °F 47.3 °F 76% 30.06 in 10.0 mi SSW 11.5 mph - N/A   Mostly Cloudy
6:58 PM 53.2 °F 46.4 °F 78% 30.06 in 10.0 mi South 11.5 mph - N/A   Overcast
7:54 PM 51.8 °F 48.2 °F 88% 30.04 in 10.0 mi South 12.7 mph - N/A Rain Light Rain
7:58 PM 52.0 °F 47.8 °F 86% 30.06 in 10.0 mi South 11.5 mph - 0.00 in Rain Light Rain
8:22 PM 51.8 °F 48.2 °F 88% 30.04 in 10.0 mi South 12.7 mph - N/A   Overcast
8:32 PM 51.8 °F 48.2 °F 88% 30.04 in 10.0 mi South 12.7 mph - N/A   Overcast
8:58 PM 52.2 °F 48.2 °F 86% 30.06 in 10.0 mi South 15.0 mph - 0.00 in   Overcast
9:08 PM 51.8 °F 48.2 °F 88% 30.04 in 10.0 mi SSW 13.8 mph - N/A   Overcast
9:58 PM 52.2 °F 47.8 °F 85% 30.04 in 10.0 mi SSW 18.4 mph 24.2 mph N/A   Mostly Cloudy
10:58 PM 51.3 °F 48.2 °F 89% 30.06 in 10.0 mi SSW 16.1 mph - N/A   Scattered Clouds
11:58 PM 51.1 °F 48.0 °F 89% 30.06 in 10.0 mi SSW 17.3 mph - N/A   Mostly Cloudy